UKV763 BIKF-EGCC

Flight info

Callsign UKV763
Flight time 2h 30m
Altitude 37000
Route RIMUM1A RIMUM DCT RUMUX DCT RAPAX DCT ERAKA/N0440F370 DCT ETSOM DCT TLA DCT DCS DCT ASCOM/N0407F250 L612 LAKEY
Aircraft A320/M-SDE3FGIKRWXY/S

Departure

Time 2026-05-04 18:45
Airport Keflavik International Airport (BIKF)

Arrival

Time 2026-05-04 21:15
Airport Manchester Airport (EGCC)
Time Latitude Longitude Altitude Speed Heading
2026-05-04 18:02 63.99275 -22.62565 143 ft 0 kts 50°
2026-05-04 18:31 63.99268 -22.62584 142 ft 4 kts 51°
2026-05-04 18:31 63.99252 -22.62633 142 ft 4 kts 60°
2026-05-04 18:32 63.99245 -22.62668 141 ft 4 kts 86°
2026-05-04 18:32 63.99252 -22.62710 141 ft 4 kts 139°
2026-05-04 18:32 63.99274 -22.62738 143 ft 4 kts 170°
2026-05-04 18:32 63.99294 -22.62742 142 ft 0 kts 178°
2026-05-04 18:36 63.99265 -22.62763 142 ft 7 kts 186°
2026-05-04 18:37 63.99259 -22.62763 142 ft 0 kts 184°
2026-05-04 18:37 63.99253 -22.62764 142 ft 4 kts 181°
2026-05-04 18:37 63.99221 -22.62701 142 ft 10 kts 136°
2026-05-04 18:37 63.99174 -22.62553 142 ft 15 kts 93°
2026-05-04 18:38 63.99174 -22.62271 142 ft 21 kts 89°
2026-05-04 18:38 63.99174 -22.61896 143 ft 26 kts 90°
2026-05-04 18:38 63.99173 -22.61472 152 ft 27 kts 89°
2026-05-04 18:38 63.99149 -22.61136 161 ft 15 kts 165°
2026-05-04 18:39 63.99031 -22.61131 163 ft 19 kts 181°
2026-05-04 18:39 63.98873 -22.61135 163 ft 26 kts 181°
2026-05-04 18:39 63.98673 -22.61130 163 ft 32 kts 179°
2026-05-04 18:39 63.98437 -22.61134 157 ft 37 kts 181°
2026-05-04 18:40 63.98217 -22.61125 161 ft 23 kts 180°
2026-05-04 18:40 63.98142 -22.61026 164 ft 7 kts 115°
2026-05-04 18:40 63.98112 -22.60950 167 ft 7 kts 163°
2026-05-04 18:40 63.98041 -22.60941 168 ft 13 kts 179°
2026-05-04 18:41 63.97933 -22.60942 169 ft 18 kts 181°
2026-05-04 18:41 63.97783 -22.60950 170 ft 25 kts 179°
2026-05-04 18:41 63.97586 -22.60950 167 ft 32 kts 180°
2026-05-04 18:41 63.97341 -22.60951 162 ft 39 kts 179°
2026-05-04 18:42 63.97055 -22.60944 152 ft 38 kts 179°
2026-05-04 18:42 63.96776 -22.60959 142 ft 44 kts 177°
2026-05-04 18:42 63.96519 -22.60947 135 ft 27 kts 177°
2026-05-04 18:42 63.96459 -22.60792 138 ft 14 kts 90°
2026-05-04 18:43 63.96478 -22.60575 144 ft 15 kts 44°
2026-05-04 18:43 63.96569 -22.60547 148 ft 0 kts 359°
2026-05-04 18:44 63.96632 -22.60551 150 ft 38 kts 358°
2026-05-04 18:44 63.96911 -22.60557 159 ft 82 kts
2026-05-04 18:44 63.98012 -22.60546 191 ft 150 kts
2026-05-04 18:44 63.99080 -22.60563 710 ft 157 kts 358°
2026-05-04 18:45 64.00235 -22.60622 1221 ft 177 kts 359°
2026-05-04 18:45 64.01541 -22.60618 1732 ft 195 kts
2026-05-04 18:45 64.02913 -22.60599 2556 ft 198 kts
2026-05-04 18:45 64.04304 -22.60581 3405 ft 201 kts
2026-05-04 18:46 64.05679 -22.59983 4168 ft 207 kts 30°
2026-05-04 18:46 64.06617 -22.57384 4754 ft 229 kts 69°
2026-05-04 18:46 64.06835 -22.53695 5521 ft 239 kts 88°
2026-05-04 18:46 64.06759 -22.49839 6316 ft 247 kts 93°
2026-05-04 18:47 64.06262 -22.46035 7069 ft 257 kts 118°
2026-05-04 18:47 64.05163 -22.42816 7797 ft 266 kts 137°
2026-05-04 18:47 64.03561 -22.40421 8229 ft 285 kts 161°
2026-05-04 18:47 64.01617 -22.39270 8938 ft 292 kts 170°
2026-05-04 18:48 63.99612 -22.38263 9743 ft 298 kts 171°
2026-05-04 18:48 63.97565 -22.37240 10498 ft 306 kts 171°
2026-05-04 18:48 63.95408 -22.36183 10788 ft 329 kts 172°
2026-05-04 18:48 63.93090 -22.35054 11031 ft 352 kts 171°
2026-05-04 18:49 63.90681 -22.33872 11883 ft 348 kts 172°
2026-05-04 18:49 63.88320 -22.32696 12869 ft 348 kts 173°
2026-05-04 18:49 63.85940 -22.31520 13591 ft 353 kts 173°
2026-05-04 18:49 63.83524 -22.30336 14282 ft 358 kts 174°
2026-05-04 18:50 63.81069 -22.29136 14909 ft 363 kts 174°
2026-05-04 18:50 63.78588 -22.27921 15532 ft 367 kts 174°
2026-05-04 18:50 63.76083 -22.26697 16179 ft 369 kts 174°
2026-05-04 18:50 63.73557 -22.25461 16826 ft 373 kts 174°
2026-05-04 18:51 63.71012 -22.24216 17455 ft 376 kts 174°
2026-05-04 18:51 63.68438 -22.22959 18077 ft 380 kts 174°
2026-05-04 18:51 63.65835 -22.21692 18667 ft 384 kts 174°
2026-05-04 18:51 63.63211 -22.20423 19213 ft 387 kts 174°
2026-05-04 18:52 63.60566 -22.19153 19761 ft 390 kts 175°
2026-05-04 18:52 63.57902 -22.17877 20283 ft 393 kts 174°
2026-05-04 18:52 63.55218 -22.16589 20851 ft 395 kts 174°
2026-05-04 18:52 63.52530 -22.15042 21385 ft 403 kts 167°
2026-05-04 18:53 63.49906 -22.12646 21902 ft 411 kts 160°
2026-05-04 18:53 63.47304 -22.09896 22330 ft 418 kts 160°
2026-05-04 18:53 63.44629 -22.07088 22464 ft 431 kts 160°
2026-05-04 18:53 63.41874 -22.04216 22610 ft 443 kts 160°
2026-05-04 18:54 63.39059 -22.01292 22916 ft 449 kts 160°
2026-05-04 18:54 63.36212 -21.98337 23339 ft 453 kts 160°
2026-05-04 18:54 63.33343 -21.95358 23784 ft 456 kts 160°
2026-05-04 18:54 63.30454 -21.92368 24172 ft 459 kts 160°
2026-05-04 18:55 63.27589 -21.89412 24524 ft 461 kts 160°
2026-05-04 18:55 63.21748 -21.83408 25300 ft 465 kts 160°
2026-05-04 18:55 63.18807 -21.80390 25660 ft 467 kts 160°
2026-05-04 18:56 63.15854 -21.77370 26022 ft 469 kts 160°
2026-05-04 18:56 63.12845 -21.74303 26385 ft 471 kts 160°
2026-05-04 18:56 63.09947 -21.71066 26732 ft 477 kts 153°
2026-05-04 18:56 63.07198 -21.66892 27077 ft 483 kts 144°
2026-05-04 18:57 63.04719 -21.61821 27428 ft 489 kts 135°
2026-05-04 18:57 63.02461 -21.56184 27758 ft 492 kts 133°
2026-05-04 18:57 63.00200 -21.50521 28106 ft 494 kts 133°
2026-05-04 18:57 62.97920 -21.44847 28436 ft 497 kts 134°
2026-05-04 18:58 62.95614 -21.39154 28702 ft 500 kts 134°
2026-05-04 18:58 62.93289 -21.33438 28996 ft 502 kts 134°
2026-05-04 18:58 62.90955 -21.27715 29292 ft 505 kts 134°
2026-05-04 18:58 62.88606 -21.21964 29586 ft 507 kts 134°
2026-05-04 18:59 62.86254 -21.16209 29877 ft 509 kts 134°
2026-05-04 18:59 62.83889 -21.10428 30159 ft 510 kts 134°
2026-05-04 18:59 62.81513 -21.04634 30425 ft 512 kts 134°
2026-05-04 18:59 62.79130 -20.98855 30723 ft 512 kts 134°
2026-05-04 19:00 62.76746 -20.93099 31095 ft 510 kts 134°
2026-05-04 19:00 62.74368 -20.87370 31443 ft 509 kts 134°
2026-05-04 19:00 62.71995 -20.81658 31786 ft 508 kts 134°
2026-05-04 19:00 62.69625 -20.75966 32127 ft 507 kts 134°
2026-05-04 19:01 62.67256 -20.70282 32476 ft 506 kts 134°
2026-05-04 19:01 62.64892 -20.64613 32828 ft 505 kts 134°
2026-05-04 19:01 62.62532 -20.58975 33169 ft 504 kts 134°
2026-05-04 19:01 62.60170 -20.53357 33510 ft 503 kts 135°
2026-05-04 19:02 62.57806 -20.47755 33853 ft 503 kts 135°
2026-05-04 19:02 62.55443 -20.42167 34151 ft 502 kts 135°
2026-05-04 19:02 62.53083 -20.36601 34447 ft 501 kts 135°
2026-05-04 19:02 62.50724 -20.31048 34727 ft 501 kts 135°
2026-05-04 19:03 62.48363 -20.25505 34988 ft 501 kts 135°
2026-05-04 19:03 62.46004 -20.19980 35241 ft 500 kts 135°
2026-05-04 19:03 62.43641 -20.14453 35506 ft 501 kts 135°
2026-05-04 19:03 62.41276 -20.08934 35729 ft 501 kts 135°
2026-05-04 19:04 62.38906 -20.03429 35955 ft 501 kts 135°
2026-05-04 19:04 62.36453 -19.98107 36181 ft 499 kts 141°
2026-05-04 19:04 62.33860 -19.93139 36398 ft 499 kts 141°
2026-05-04 19:04 62.31270 -19.88187 36585 ft 498 kts 141°
2026-05-04 19:05 62.28674 -19.83238 36813 ft 498 kts 141°
2026-05-04 19:05 62.26087 -19.78315 37032 ft 498 kts 141°
2026-05-04 19:05 62.23494 -19.73393 37206 ft 498 kts 141°
2026-05-04 19:05 62.20895 -19.68465 37249 ft 499 kts 141°
2026-05-04 19:06 62.15690 -19.58621 37247 ft 499 kts 141°
2026-05-04 19:06 62.10478 -19.48805 37245 ft 499 kts 141°
2026-05-04 19:07 62.05266 -19.39029 37234 ft 498 kts 141°
2026-05-04 19:07 62.00078 -19.29373 37236 ft 498 kts 141°
2026-05-04 19:08 61.94853 -19.19681 37239 ft 498 kts 141°
2026-05-04 19:08 61.89624 -19.10026 37236 ft 498 kts 142°
2026-05-04 19:09 61.84386 -19.00423 37237 ft 498 kts 142°
2026-05-04 19:09 61.79145 -18.90838 37212 ft 498 kts 142°
2026-05-04 19:10 61.73903 -18.81282 37227 ft 497 kts 142°
2026-05-04 19:10 61.68653 -18.71779 37249 ft 498 kts 142°
2026-05-04 19:11 61.63393 -18.62291 37247 ft 498 kts 142°
2026-05-04 19:11 61.58126 -18.52842 37238 ft 498 kts 142°
2026-05-04 19:12 61.50310 -18.38524 37228 ft 499 kts 135°
2026-05-04 19:13 61.46064 -18.27012 37220 ft 501 kts 127°
2026-05-04 19:13 61.41974 -18.15223 37227 ft 501 kts 127°
2026-05-04 19:14 61.37856 -18.03498 37210 ft 501 kts 127°
2026-05-04 19:14 61.33728 -17.91810 37204 ft 500 kts 128°
2026-05-04 19:15 61.29600 -17.80165 37209 ft 500 kts 128°
2026-05-04 19:15 61.25464 -17.68550 37247 ft 499 kts 128°
2026-05-04 19:16 61.22019 -17.58915 37203 ft 500 kts 128°
2026-05-04 19:16 61.17865 -17.47352 37194 ft 500 kts 128°
2026-05-04 19:17 61.13701 -17.35809 37182 ft 500 kts 128°
2026-05-04 19:17 61.09523 -17.24294 37164 ft 500 kts 128°
2026-05-04 19:18 61.05336 -17.12817 37186 ft 500 kts 128°
2026-05-04 19:18 61.01139 -17.01373 37186 ft 500 kts 128°
2026-05-04 19:19 60.96928 -16.89943 37185 ft 500 kts 128°
2026-05-04 19:19 60.92715 -16.78567 37185 ft 500 kts 129°
2026-05-04 19:20 60.88491 -16.67235 37181 ft 500 kts 129°
2026-05-04 19:20 60.84260 -16.55919 37169 ft 500 kts 129°
2026-05-04 19:21 60.80022 -16.44616 37172 ft 500 kts 129°
2026-05-04 19:21 60.75804 -16.33414 37172 ft 500 kts 129°
2026-05-04 19:22 60.71537 -16.22182 37169 ft 500 kts 129°
2026-05-04 19:22 60.67256 -16.10990 37168 ft 500 kts 129°
2026-05-04 19:23 60.62972 -15.99806 37168 ft 500 kts 129°
2026-05-04 19:23 60.60857 -15.94290 37145 ft 487 kts 129°
2026-05-04 19:23 60.58800 -15.88935 37149 ft 473 kts 129°
2026-05-04 19:24 60.54791 -15.78527 37152 ft 464 kts 130°
2026-05-04 19:24 60.50808 -15.68285 37144 ft 459 kts 130°
2026-05-04 19:25 60.46840 -15.58153 37149 ft 458 kts 130°
2026-05-04 19:25 60.42875 -15.48033 37126 ft 458 kts 130°
2026-05-04 19:26 60.38915 -15.37952 37130 ft 457 kts 130°
2026-05-04 19:26 60.34949 -15.27908 37151 ft 457 kts 130°
2026-05-04 19:27 60.30978 -15.17894 37144 ft 457 kts 130°
2026-05-04 19:27 60.26990 -15.07909 37144 ft 457 kts 130°
2026-05-04 19:28 60.22993 -14.97961 37146 ft 457 kts 130°
2026-05-04 19:28 60.19022 -14.88092 37121 ft 456 kts 130°
2026-05-04 19:29 60.15028 -14.78192 37153 ft 456 kts 131°
2026-05-04 19:29 60.11026 -14.68327 37148 ft 456 kts 131°
2026-05-04 19:30 60.07025 -14.58477 37142 ft 456 kts 131°
2026-05-04 19:30 60.03014 -14.48664 37138 ft 455 kts 131°
2026-05-04 19:31 59.98991 -14.38888 37132 ft 455 kts 131°
2026-05-04 19:31 59.94959 -14.29127 37117 ft 455 kts 131°
2026-05-04 19:32 59.90940 -14.19408 37129 ft 454 kts 131°
2026-05-04 19:32 59.86907 -14.09713 37136 ft 454 kts 131°
2026-05-04 19:33 59.82875 -14.00067 37132 ft 454 kts 131°
2026-05-04 19:33 59.78836 -13.90434 37131 ft 453 kts 131°
2026-05-04 19:34 59.74787 -13.80846 37133 ft 453 kts 132°
2026-05-04 19:34 59.70731 -13.71283 37111 ft 452 kts 131°
2026-05-04 19:35 59.66709 -13.61808 37124 ft 452 kts 131°
2026-05-04 19:35 59.62639 -13.52249 37129 ft 451 kts 132°
2026-05-04 19:36 59.58618 -13.42846 37131 ft 451 kts 132°
2026-05-04 19:36 59.54563 -13.33413 37129 ft 450 kts 132°
2026-05-04 19:37 59.50505 -13.24019 37128 ft 450 kts 132°
2026-05-04 19:37 59.46441 -13.14651 37125 ft 450 kts 132°
2026-05-04 19:38 59.42379 -13.05313 37144 ft 449 kts 132°
2026-05-04 19:38 59.38305 -12.96008 37113 ft 450 kts 132°
2026-05-04 19:39 59.34225 -12.86685 37098 ft 451 kts 133°
2026-05-04 19:39 59.30120 -12.77362 37099 ft 452 kts 133°
2026-05-04 19:40 59.26003 -12.68046 37071 ft 453 kts 133°
2026-05-04 19:40 59.21879 -12.58745 37095 ft 452 kts 133°
2026-05-04 19:41 59.17743 -12.49490 37109 ft 452 kts 133°
2026-05-04 19:41 59.13602 -12.40258 37115 ft 452 kts 133°
2026-05-04 19:42 59.09482 -12.31102 37115 ft 452 kts 133°
2026-05-04 19:42 59.05335 -12.21906 37120 ft 452 kts 133°
2026-05-04 19:43 59.01182 -12.12731 37114 ft 452 kts 133°
2026-05-04 19:43 58.97024 -12.03580 37130 ft 451 kts 133°
2026-05-04 19:44 58.92868 -11.94477 37124 ft 451 kts 133°
2026-05-04 19:44 58.88699 -11.85399 37125 ft 451 kts 133°
2026-05-04 19:45 58.84523 -11.76336 37126 ft 451 kts 133°
2026-05-04 19:45 58.80349 -11.67299 37116 ft 453 kts 134°
2026-05-04 19:46 58.76109 -11.58152 37113 ft 461 kts 134°
2026-05-04 19:46 58.71783 -11.48860 37109 ft 471 kts 134°
2026-05-04 19:47 58.67351 -11.39380 37112 ft 481 kts 134°
2026-05-04 19:47 58.62844 -11.29789 37104 ft 484 kts 134°
2026-05-04 19:48 58.58315 -11.20196 37109 ft 485 kts 134°
2026-05-04 19:48 58.53782 -11.10616 37098 ft 485 kts 134°
2026-05-04 19:49 58.49247 -11.01079 37110 ft 484 kts 134°
2026-05-04 19:49 58.44706 -10.91579 37113 ft 484 kts 134°
2026-05-04 19:50 58.40153 -10.82109 37116 ft 484 kts 134°
2026-05-04 19:50 58.35604 -10.72661 37117 ft 484 kts 134°
2026-05-04 19:51 58.31042 -10.63222 37113 ft 484 kts 134°
2026-05-04 19:51 58.26481 -10.53809 37130 ft 484 kts 134°
2026-05-04 19:52 58.21911 -10.44419 37123 ft 484 kts 135°
2026-05-04 19:52 58.17327 -10.35056 37113 ft 484 kts 135°
2026-05-04 19:53 58.12736 -10.25716 37112 ft 484 kts 135°
2026-05-04 19:53 58.08135 -10.16394 37115 ft 485 kts 135°
2026-05-04 19:54 58.03524 -10.07109 37104 ft 484 kts 135°
2026-05-04 19:54 57.99522 -9.97005 37110 ft 487 kts 118°
2026-05-04 19:55 57.96859 -9.85280 37110 ft 487 kts 112°
2026-05-04 19:55 57.94317 -9.73457 37105 ft 487 kts 112°
2026-05-04 19:56 57.91745 -9.61648 37106 ft 488 kts 113°
2026-05-04 19:56 57.89060 -9.49933 37101 ft 487 kts 119°
2026-05-04 19:57 57.85479 -9.39162 37101 ft 486 kts 124°
2026-05-04 19:57 57.81812 -9.28483 37092 ft 486 kts 124°
2026-05-04 19:58 57.78142 -9.17841 37095 ft 486 kts 124°
2026-05-04 19:58 57.74450 -9.07210 37108 ft 486 kts 124°
2026-05-04 19:59 57.71376 -8.98401 37103 ft 487 kts 124°
2026-05-04 19:59 57.67665 -8.87814 37095 ft 487 kts 125°
2026-05-04 20:00 57.63346 -8.75528 37094 ft 487 kts 125°
2026-05-04 20:00 57.59620 -8.64973 37083 ft 487 kts 125°
2026-05-04 20:01 57.56494 -8.56158 37099 ft 486 kts 125°
2026-05-04 20:01 57.52756 -8.45657 37103 ft 486 kts 125°
2026-05-04 20:02 57.49008 -8.35185 37108 ft 486 kts 125°
2026-05-04 20:02 57.45248 -8.24732 37102 ft 486 kts 126°
2026-05-04 20:03 57.41486 -8.14298 37088 ft 487 kts 126°
2026-05-04 20:03 57.37715 -8.03877 37074 ft 486 kts 126°
2026-05-04 20:04 57.33932 -7.93505 37087 ft 485 kts 126°
2026-05-04 20:04 57.30172 -7.83236 37091 ft 485 kts 126°
2026-05-04 20:05 57.26363 -7.72854 37104 ft 485 kts 126°
2026-05-04 20:05 57.22598 -7.62628 37095 ft 485 kts 126°
2026-05-04 20:06 57.18796 -7.52355 37090 ft 485 kts 126°
2026-05-04 20:06 57.14977 -7.42102 37070 ft 485 kts 126°
2026-05-04 20:07 57.11162 -7.31891 37087 ft 484 kts 126°
2026-05-04 20:07 57.07336 -7.21704 37090 ft 484 kts 126°
2026-05-04 20:08 57.03509 -7.11533 37089 ft 483 kts 126°
2026-05-04 20:08 56.99678 -7.01402 37096 ft 483 kts 126°
2026-05-04 20:09 56.95837 -6.91284 37090 ft 483 kts 127°
2026-05-04 20:09 56.91987 -6.81185 37059 ft 483 kts 127°
2026-05-04 20:10 56.88138 -6.71124 37081 ft 482 kts 127°
2026-05-04 20:10 56.84283 -6.61092 37090 ft 482 kts 127°
2026-05-04 20:11 56.80416 -6.51096 37089 ft 482 kts 127°
2026-05-04 20:11 56.76548 -6.41117 37092 ft 481 kts 127°
2026-05-04 20:12 56.72677 -6.31168 37088 ft 481 kts 127°
2026-05-04 20:12 56.68798 -6.21237 37089 ft 481 kts 127°
2026-05-04 20:13 56.64911 -6.11341 37075 ft 480 kts 127°
2026-05-04 20:13 56.61018 -6.01479 37090 ft 480 kts 127°
2026-05-04 20:14 56.57129 -5.91646 37092 ft 479 kts 127°
2026-05-04 20:14 56.53232 -5.81831 37093 ft 479 kts 127°
2026-05-04 20:15 56.49331 -5.72061 37092 ft 479 kts 128°
2026-05-04 20:15 56.45441 -5.62365 37094 ft 479 kts 128°
2026-05-04 20:16 56.41527 -5.52636 37082 ft 478 kts 128°
2026-05-04 20:16 56.37609 -5.42924 37089 ft 478 kts 128°
2026-05-04 20:17 56.33690 -5.33249 37090 ft 477 kts 128°
2026-05-04 20:17 56.29767 -5.23606 37086 ft 477 kts 128°
2026-05-04 20:18 56.25837 -5.13997 37095 ft 477 kts 128°
2026-05-04 20:18 56.21895 -5.04395 37085 ft 477 kts 128°
2026-05-04 20:19 56.17945 -4.94815 37072 ft 477 kts 128°
2026-05-04 20:19 56.13990 -4.85260 37081 ft 477 kts 128°
2026-05-04 20:20 56.10031 -4.75724 37070 ft 476 kts 128°
2026-05-04 20:20 56.06077 -4.66219 37087 ft 476 kts 129°
2026-05-04 20:21 56.02113 -4.56733 37093 ft 476 kts 129°
2026-05-04 20:21 55.96155 -4.42554 37102 ft 476 kts 129°
2026-05-04 20:22 55.92168 -4.33121 37099 ft 476 kts 129°
2026-05-04 20:22 55.88177 -4.23713 37097 ft 476 kts 129°
2026-05-04 20:23 55.84177 -4.14328 37088 ft 476 kts 129°
2026-05-04 20:23 55.80176 -4.04957 37080 ft 476 kts 129°
2026-05-04 20:24 55.76165 -3.95613 37073 ft 476 kts 129°
2026-05-04 20:24 55.72170 -3.86336 37054 ft 476 kts 129°
2026-05-04 20:25 55.68151 -3.77033 37047 ft 470 kts 129°
2026-05-04 20:25 55.66193 -3.72507 37045 ft 454 kts 129°
2026-05-04 20:25 55.64294 -3.68134 37050 ft 444 kts 129°
2026-05-04 20:26 55.60549 -3.59535 37055 ft 439 kts 130°
2026-05-04 20:26 55.56818 -3.50994 37051 ft 439 kts 130°
2026-05-04 20:27 55.52792 -3.42964 36834 ft 438 kts 143°
2026-05-04 20:27 55.50362 -3.39804 36533 ft 430 kts 152°
2026-05-04 20:27 55.47733 -3.37440 36248 ft 418 kts 162°
2026-05-04 20:28 55.45000 -3.35923 35990 ft 408 kts 172°
2026-05-04 20:28 55.42221 -3.35204 35735 ft 401 kts 181°
2026-05-04 20:28 55.39446 -3.35120 35483 ft 398 kts 184°
2026-05-04 20:28 55.36676 -3.35090 35233 ft 399 kts 183°
2026-05-04 20:29 55.33896 -3.35044 34987 ft 399 kts 183°
2026-05-04 20:29 55.31122 -3.34995 34747 ft 399 kts 183°
2026-05-04 20:29 55.28316 -3.34942 34502 ft 399 kts 183°
2026-05-04 20:29 55.25564 -3.34891 34258 ft 400 kts 183°
2026-05-04 20:30 55.22783 -3.34842 34018 ft 400 kts 183°
2026-05-04 20:30 55.20001 -3.34793 33731 ft 400 kts 182°
2026-05-04 20:30 55.17216 -3.34749 33456 ft 401 kts 182°
2026-05-04 20:30 55.14427 -3.34707 33185 ft 401 kts 182°
2026-05-04 20:31 55.11633 -3.34665 32915 ft 402 kts 182°
2026-05-04 20:31 55.08839 -3.34624 32649 ft 402 kts 182°
2026-05-04 20:31 55.06040 -3.34584 32385 ft 402 kts 182°
2026-05-04 20:31 55.03237 -3.34544 32124 ft 403 kts 182°
2026-05-04 20:32 55.00429 -3.34506 31868 ft 404 kts 183°
2026-05-04 20:32 54.97621 -3.34468 31611 ft 404 kts 183°
2026-05-04 20:32 54.92025 -3.34378 31092 ft 404 kts 182°
2026-05-04 20:33 54.89217 -3.34330 30845 ft 403 kts 182°
2026-05-04 20:33 54.86419 -3.34283 30599 ft 402 kts 182°
2026-05-04 20:33 54.83630 -3.34236 30352 ft 399 kts 182°
2026-05-04 20:33 54.80881 -3.34186 30100 ft 390 kts 182°
2026-05-04 20:34 54.78194 -3.34138 29817 ft 382 kts 182°
2026-05-04 20:34 54.75564 -3.34089 29526 ft 374 kts 180°
2026-05-04 20:34 54.72991 -3.33650 29247 ft 369 kts 172°
2026-05-04 20:34 54.70499 -3.32617 28809 ft 369 kts 163°
2026-05-04 20:35 54.68106 -3.31007 28259 ft 370 kts 158°
2026-05-04 20:35 54.65771 -3.29229 27984 ft 363 kts 158°
2026-05-04 20:35 54.63475 -3.27492 27640 ft 358 kts 158°
2026-05-04 20:35 54.61200 -3.25782 27253 ft 355 kts 158°
2026-05-04 20:36 54.58942 -3.24092 26865 ft 353 kts 158°
2026-05-04 20:36 54.56700 -3.22418 26470 ft 350 kts 158°
2026-05-04 20:36 54.54501 -3.20779 26074 ft 348 kts 158°
2026-05-04 20:36 54.52286 -3.19135 25671 ft 346 kts 158°
2026-05-04 20:37 54.50098 -3.17507 25302 ft 337 kts 158°
2026-05-04 20:37 54.47976 -3.15927 24851 ft 329 kts 158°
2026-05-04 20:37 54.45888 -3.14375 24308 ft 324 kts 158°
2026-05-04 20:37 54.43801 -3.12825 23749 ft 321 kts 157°
2026-05-04 20:38 54.41787 -3.11332 23162 ft 318 kts 157°
2026-05-04 20:38 54.39768 -3.09834 22553 ft 315 kts 157°
2026-05-04 20:38 54.37770 -3.08352 21991 ft 311 kts 158°
2026-05-04 20:38 54.35794 -3.06891 21410 ft 308 kts 158°
2026-05-04 20:39 54.33782 -3.05405 20852 ft 305 kts 158°
2026-05-04 20:39 54.31847 -3.03974 20592 ft 302 kts 158°
2026-05-04 20:39 54.29907 -3.02545 20477 ft 304 kts 158°
2026-05-04 20:39 54.27967 -3.01123 20343 ft 303 kts 158°
2026-05-04 20:40 54.26032 -2.99707 20216 ft 302 kts 158°
2026-05-04 20:40 54.24115 -2.98258 20074 ft 302 kts 154°
2026-05-04 20:40 54.22309 -2.96396 19700 ft 306 kts 148°
2026-05-04 20:40 54.20532 -2.94393 19439 ft 303 kts 148°
2026-05-04 20:41 54.19380 -2.93086 19330 ft 298 kts 148°
2026-05-04 20:41 54.17083 -2.90484 18987 ft 294 kts 148°
2026-05-04 20:41 54.15379 -2.88563 18707 ft 293 kts 148°
2026-05-04 20:41 54.13683 -2.86658 18430 ft 291 kts 148°
2026-05-04 20:42 54.11995 -2.84761 18123 ft 290 kts 148°
2026-05-04 20:42 54.10880 -2.83512 17917 ft 289 kts 148°
2026-05-04 20:42 54.09205 -2.81638 17601 ft 288 kts 148°
2026-05-04 20:42 54.07535 -2.79771 17298 ft 287 kts 148°
2026-05-04 20:43 54.05883 -2.77928 16995 ft 286 kts 148°
2026-05-04 20:43 54.04211 -2.76064 16702 ft 285 kts 148°
2026-05-04 20:43 54.02559 -2.74226 16419 ft 283 kts 148°
2026-05-04 20:43 54.00911 -2.72395 16142 ft 282 kts 148°
2026-05-04 20:44 53.99268 -2.70569 15877 ft 281 kts 148°
2026-05-04 20:44 53.97634 -2.68752 15607 ft 280 kts 149°
2026-05-04 20:44 53.96002 -2.66944 15336 ft 279 kts 149°
2026-05-04 20:44 53.94379 -2.65148 15087 ft 278 kts 149°
2026-05-04 20:45 53.92762 -2.63356 14834 ft 277 kts 149°
2026-05-04 20:45 53.91154 -2.61569 14581 ft 276 kts 149°
2026-05-04 20:45 53.89535 -2.59780 14119 ft 283 kts 149°
2026-05-04 20:45 53.87905 -2.57982 14055 ft 276 kts 149°
2026-05-04 20:46 53.86295 -2.56205 14063 ft 275 kts 149°
2026-05-04 20:46 53.84669 -2.54412 14065 ft 275 kts 149°
2026-05-04 20:46 53.83066 -2.52647 14064 ft 275 kts 149°
2026-05-04 20:46 53.81441 -2.50862 13614 ft 285 kts 149°
2026-05-04 20:47 53.79778 -2.49038 13374 ft 281 kts 149°
2026-05-04 20:47 53.78136 -2.47235 13238 ft 275 kts 149°
2026-05-04 20:47 53.76544 -2.45485 12995 ft 272 kts 149°
2026-05-04 20:47 53.74963 -2.43751 12718 ft 270 kts 149°
2026-05-04 20:48 53.73387 -2.42023 12414 ft 271 kts 149°
2026-05-04 20:48 53.71789 -2.40280 12064 ft 272 kts 149°
2026-05-04 20:48 53.70214 -2.38561 12059 ft 269 kts 149°
2026-05-04 20:48 53.68642 -2.36847 12062 ft 269 kts 149°
2026-05-04 20:49 53.67075 -2.35139 12066 ft 268 kts 150°
2026-05-04 20:49 53.65369 -2.33972 12061 ft 264 kts 174°
2026-05-04 20:49 53.63569 -2.34148 12065 ft 259 kts 199°
2026-05-04 20:49 53.61996 -2.35557 12064 ft 256 kts 223°
2026-05-04 20:50 53.60866 -2.38085 12067 ft 254 kts 248°
2026-05-04 20:50 53.60487 -2.40868 12063 ft 253 kts 270°
2026-05-04 20:50 53.60789 -2.43776 12068 ft 254 kts 292°
2026-05-04 20:50 53.61756 -2.46240 12062 ft 256 kts 315°
2026-05-04 20:51 53.63381 -2.47931 12061 ft 260 kts 341°
2026-05-04 20:51 53.65046 -2.48518 12067 ft 262 kts 348°
2026-05-04 20:51 53.66842 -2.49040 12063 ft 262 kts 348°
2026-05-04 20:51 53.68620 -2.49546 12060 ft 254 kts 348°
2026-05-04 20:52 53.70362 -2.50042 12064 ft 249 kts 348°
2026-05-04 20:52 53.72065 -2.50528 12071 ft 248 kts 348°
2026-05-04 20:52 53.73776 -2.50833 12065 ft 249 kts
2026-05-04 20:52 53.75451 -2.50086 12069 ft 253 kts 26°
2026-05-04 20:53 53.76807 -2.48200 12063 ft 256 kts 52°
2026-05-04 20:53 53.77595 -2.45306 12063 ft 258 kts 80°
2026-05-04 20:53 53.77572 -2.42391 12064 ft 258 kts 105°
2026-05-04 20:53 53.76819 -2.39671 12063 ft 256 kts 131°
2026-05-04 20:54 53.75480 -2.37748 12065 ft 253 kts 156°
2026-05-04 20:54 53.73825 -2.36851 12066 ft 250 kts 171°
2026-05-04 20:54 53.72117 -2.36303 12066 ft 250 kts 173°
2026-05-04 20:54 53.70375 -2.35824 12061 ft 250 kts 173°
2026-05-04 20:55 53.68659 -2.35366 12067 ft 250 kts 173°
2026-05-04 20:55 53.66898 -2.34894 12063 ft 250 kts 175°
2026-05-04 20:55 53.65199 -2.35093 12063 ft 244 kts 201°
2026-05-04 20:55 53.63772 -2.36550 12065 ft 240 kts 228°
2026-05-04 20:56 53.62889 -2.38908 11921 ft 240 kts 253°
2026-05-04 20:56 53.62733 -2.41656 11670 ft 235 kts 279°
2026-05-04 20:56 53.63311 -2.44212 11414 ft 236 kts 304°
2026-05-04 20:56 53.64510 -2.46090 11169 ft 238 kts 330°
2026-05-04 20:57 53.66086 -2.46959 10927 ft 241 kts 347°
2026-05-04 20:57 53.67732 -2.47473 10681 ft 240 kts 348°
2026-05-04 20:57 53.69375 -2.47933 10429 ft 239 kts 348°
2026-05-04 20:57 53.71013 -2.48383 10190 ft 238 kts 348°
2026-05-04 20:58 53.72644 -2.48821 9977 ft 236 kts 352°
2026-05-04 20:58 53.74272 -2.48558 9842 ft 239 kts 17°
2026-05-04 20:58 53.75688 -2.47083 9713 ft 244 kts 45°
2026-05-04 20:58 53.76555 -2.44631 9577 ft 247 kts 73°
2026-05-04 20:59 53.76651 -2.41739 9446 ft 249 kts 102°
2026-05-04 20:59 53.75930 -2.39081 9309 ft 247 kts 131°
2026-05-04 20:59 53.74589 -2.37291 8966 ft 254 kts 159°
2026-05-04 20:59 53.72845 -2.36573 8307 ft 263 kts 173°
2026-05-04 21:00 53.71047 -2.36081 7934 ft 263 kts 173°
2026-05-04 21:00 53.69219 -2.35577 7543 ft 264 kts 172°
2026-05-04 21:00 53.67461 -2.34828 7412 ft 261 kts 157°
2026-05-04 21:00 53.65966 -2.33139 7142 ft 259 kts 133°
2026-05-04 21:01 53.64868 -2.30742 6774 ft 259 kts 128°
2026-05-04 21:01 53.63718 -2.28421 6431 ft 257 kts 132°
2026-05-04 21:01 53.62536 -2.26174 6072 ft 255 kts 132°
2026-05-04 21:01 53.61378 -2.23914 5703 ft 254 kts 130°
2026-05-04 21:02 53.60615 -2.22374 5448 ft 253 kts 130°
2026-05-04 21:02 53.59494 -2.20100 5158 ft 249 kts 130°
2026-05-04 21:02 53.58405 -2.17897 4960 ft 242 kts 130°
2026-05-04 21:02 53.57333 -2.15731 4646 ft 240 kts 130°
2026-05-04 21:03 53.55923 -2.12892 4219 ft 238 kts 130°
2026-05-04 21:03 53.55208 -2.11456 4044 ft 236 kts 130°
2026-05-04 21:03 53.54173 -2.09379 3983 ft 225 kts 130°
2026-05-04 21:03 53.53219 -2.07466 3981 ft 208 kts 130°
2026-05-04 21:04 53.52311 -2.05648 3881 ft 199 kts 130°
2026-05-04 21:04 53.51268 -2.04196 3623 ft 196 kts 161°
2026-05-04 21:04 53.50025 -2.04200 3789 ft 168 kts 205°
2026-05-04 21:04 53.48942 -2.05360 4248 ft 202 kts 221°
2026-05-04 21:05 53.47686 -2.06572 4555 ft 213 kts 200°
2026-05-04 21:05 53.46242 -2.07229 4286 ft 216 kts 195°
2026-05-04 21:05 53.44917 -2.08320 4266 ft 215 kts 227°
2026-05-04 21:05 53.44230 -2.10561 4824 ft 225 kts 262°
2026-05-04 21:06 53.44410 -2.13128 5562 ft 231 kts 293°
2026-05-04 21:06 53.45376 -2.15289 5901 ft 234 kts 322°
2026-05-04 21:06 53.46871 -2.16300 5977 ft 235 kts 352°
2026-05-04 21:06 53.48511 -2.16392 5987 ft 237 kts 359°
2026-05-04 21:07 53.50157 -2.16327 5992 ft 237 kts
2026-05-04 21:07 53.51802 -2.16237 5990 ft 236 kts
2026-05-04 21:07 53.53447 -2.16142 5989 ft 236 kts
2026-05-04 21:07 53.55098 -2.15914 5983 ft 238 kts 14°
2026-05-04 21:08 53.56517 -2.14592 5708 ft 238 kts 45°
2026-05-04 21:08 53.57368 -2.12162 5342 ft 240 kts 74°
2026-05-04 21:08 53.57456 -2.09500 5148 ft 233 kts 101°
2026-05-04 21:08 53.56851 -2.07045 4933 ft 226 kts 128°
2026-05-04 21:09 53.55687 -2.05322 4645 ft 223 kts 154°
2026-05-04 21:09 53.54280 -2.04234 4317 ft 223 kts 156°
2026-05-04 21:09 53.52869 -2.03158 3992 ft 222 kts 156°
2026-05-04 21:09 53.51457 -2.02086 3704 ft 221 kts 160°
2026-05-04 21:10 53.49973 -2.01588 3515 ft 217 kts 181°
2026-05-04 21:10 53.48488 -2.01982 3491 ft 217 kts 201°
2026-05-04 21:10 53.47193 -2.03166 3489 ft 215 kts 221°
2026-05-04 21:10 53.46162 -2.05022 3398 ft 215 kts 233°
2026-05-04 21:11 53.45250 -2.06941 3147 ft 210 kts 233°
2026-05-04 21:11 53.44342 -2.08845 2899 ft 201 kts 233°
2026-05-04 21:11 53.43504 -2.10595 2644 ft 189 kts 233°
2026-05-04 21:11 53.42707 -2.12254 2391 ft 177 kts 234°
2026-05-04 21:12 53.41955 -2.13822 2169 ft 170 kts 234°
2026-05-04 21:12 53.41218 -2.15353 1925 ft 158 kts 235°
2026-05-04 21:12 53.40568 -2.16706 1725 ft 150 kts 235°
2026-05-04 21:12 53.39930 -2.18032 1512 ft 142 kts 235°
2026-05-04 21:13 53.39317 -2.19309 1328 ft 140 kts 234°
2026-05-04 21:13 53.38714 -2.20562 1125 ft 137 kts 233°
2026-05-04 21:13 53.38115 -2.21807 941 ft 137 kts 233°
2026-05-04 21:13 53.37523 -2.23037 748 ft 135 kts 233°
2026-05-04 21:14 53.36934 -2.24258 569 ft 134 kts 233°
2026-05-04 21:14 53.36352 -2.25477 387 ft 134 kts 232°
2026-05-04 21:14 53.35776 -2.26671 269 ft 123 kts 234°
2026-05-04 21:14 53.35357 -2.27565 243 ft 60 kts 230°
2026-05-04 21:15 53.35246 -2.28011 233 ft 31 kts 262°
2026-05-04 21:15 53.35232 -2.28147 231 ft 0 kts 264°
2026-05-04 21:15 53.35235 -2.28176 231 ft 9 kts 283°
2026-05-04 21:16 53.35280 -2.28221 232 ft 7 kts 17°
2026-05-04 21:16 53.35316 -2.28200 233 ft 4 kts 18°
2026-05-04 21:16 53.35332 -2.28192 234 ft 2 kts 17°
2026-05-04 21:16 53.35393 -2.28166 236 ft 13 kts
2026-05-04 21:17 53.35496 -2.28123 235 ft 17 kts 24°
2026-05-04 21:17 53.35582 -2.27989 238 ft 16 kts 50°
2026-05-04 21:17 53.35659 -2.27889 242 ft 12 kts 11°
2026-05-04 21:17 53.35729 -2.27878 246 ft 10 kts
2026-05-04 21:18 53.35816 -2.27867 251 ft 15 kts
2026-05-04 21:18 53.35939 -2.27856 255 ft 21 kts 352°
2026-05-04 21:18 53.36074 -2.28026 255 ft 28 kts 316°
2026-05-04 21:18 53.36218 -2.28259 255 ft 25 kts 316°
2026-05-04 21:19 53.36304 -2.28405 255 ft 13 kts 315°
2026-05-04 21:19 53.36370 -2.28466 255 ft 11 kts 12°
2026-05-04 21:19 53.36414 -2.28402 255 ft 0 kts 65°
2026-05-04 21:19 53.36414 -2.28401 255 ft 0 kts 62°
2026-05-04 21:20 53.36421 -2.28393 255 ft 1 kts 41°
2026-05-04 21:20 53.36425 -2.28386 255 ft 1 kts 40°
2026-05-04 21:20 53.36452 -2.28349 255 ft 6 kts 41°
2026-05-04 21:20 53.36479 -2.28307 255 ft 5 kts 42°
2026-05-04 21:21 53.36502 -2.28270 255 ft 4 kts 44°
2026-05-04 21:21 53.36523 -2.28245 255 ft 3 kts 20°
2026-05-04 21:21 53.36538 -2.28252 255 ft 2 kts 332°
2026-05-04 21:21 53.36545 -2.28262 255 ft 1 kts 320°
2026-05-04 21:22 53.36572 -2.28305 255 ft 10 kts 315°
2026-05-04 21:22 53.36593 -2.28342 255 ft 2 kts 314°
2026-05-04 21:22 53.36600 -2.28354 255 ft 0 kts 314°